This is the latest recevied weather packets stored in our database for station/object N3TTT-13. If no packets are shown the sender has not sent any weather packets the latest 1 day(s).
| Time | Temp. | Humidity | Pressure | Rain* | Wind** | Luminosity | Snow |
|---|---|---|---|---|---|---|---|
| 1778057655 | 17.78° C | 79% | 1010.9 hPa | 0 mm | - | 0 W/m² | - |
| 1778057351 | 17.78° C | 79% | 1011 hPa | 0 mm | - | 0 W/m² | - |
| 1778057048 | 17.78° C | 79% | 1011 hPa | 0 mm | - | 0 W/m² | - |
| 1778056744 | 17.78° C | 80% | 1011.1 hPa | 0 mm | - | 0 W/m² | - |
| 1778056139 | 18.33° C | 80% | 1010.9 hPa | 0 mm | - | 0 W/m² | - |
| 1778055531 | 17.78° C | 80% | 1011.4 hPa | 0 mm | - | 0 W/m² | - |
| 1778055230 | 18.33° C | 80% | 1011.4 hPa | 0 mm | - | 0 W/m² | - |
| 1778053716 | 18.33° C | 80% | 1011.5 hPa | 0 mm | - | 0 W/m² | - |
| 1778053110 | 18.33° C | 79% | 1011.4 hPa | 0 mm | - | 0 W/m² | - |
| 1778052808 | 18.89° C | 79% | 1011.4 hPa | 0 mm | - | 0 W/m² | - |
| 1778052202 | 18.89° C | 79% | 1011.3 hPa | 0 mm | - | 0 W/m² | - |
| 1778051900 | 18.89° C | 79% | 1011.2 hPa | 0 mm | - | 0 W/m² | - |
| 1778051598 | 18.89° C | 79% | 1011.2 hPa | 0 mm | - | 0 W/m² | - |
| 1778051294 | 18.89° C | 78% | 1011.2 hPa | 0 mm | - | 0 W/m² | - |
| 1778050386 | 18.89° C | 79% | 1011.3 hPa | 0 mm | - | 0 W/m² | - |
| 1778049778 | 18.89° C | 78% | 1011.5 hPa | 0 mm | - | 0 W/m² | - |
| 1778049173 | 18.89° C | 78% | 1011.2 hPa | 0 mm | - | 0 W/m² | - |
| 1778048264 | 19.44° C | 78% | 1011.6 hPa | 0 mm | - | 0 W/m² | - |
| 1778047660 | 19.44° C | 77% | 1011.4 hPa | 0 mm | - | 0 W/m² | - |
| 1778047054 | 19.44° C | 78% | 1011.5 hPa | 0 mm | - | 0 W/m² | - |
| 1778046448 | 19.44° C | 77% | 1011.5 hPa | 0 mm | - | 0 W/m² | - |
| 1778046144 | 19.44° C | 77% | 1011.5 hPa | 0 mm | - | 0 W/m² | - |
| 1778045540 | 20° C | 76% | 1011.6 hPa | 0 mm | - | 0 W/m² | - |
| 1778045237 | 20° C | 76% | 1011.7 hPa | 0 mm | - | 0 W/m² | - |
| 1778044633 | 20° C | 75% | 1011.7 hPa | 0 mm | - | 0 W/m² | - |
* Rain latest hour (hover to see other rain measurements)
** Current wind speed in m/s (hover to see current wind gust speed)